Starlink 11098

operational
NORAD ID: 59760 Int'l Des: 2024-091 Owner: SPXS Country: US Constellation: starlink
LEOCIRCULAR

About Starlink 11098

Description loading...

Live Position

Loading 3D Globe...

Upcoming Passes

Altitude History

Altitude vs Time

uPlot chart will show altitude changes over time

Two-Line Element Set

1 59760U 24091H 26062.63735929 .00002720 00000-0 27305-4 0 9995
2 59760 53.1602 236.0318 0000997 106.3745 253.7383 15.69706929104561
Epoch: Mar 3, 2026 • Age: 37 hours

Current Status

Altitude 360.6 km
Velocity 7.70 km/s
Sub-Earth Point 25.10°N, 102.64°W
Launch Date May 14, 2024
Age 1.8 years
Type internet

Technical Details

Classification Payload
Mass 960.00 kg
Dry Mass 910.00 kg
Total Mass 960.00 kg
Length 0.30 m
Diameter 4.10 m
Span 29.00 m
Shape Box + pan
Manufacturer SPXS
Bus Type Starlink V2MD
Phase Status In Orbit
Owner/State SPXS/US

Large Constellations

Loading constellations...